カタログに戻る

STARLINK-37585

運用中通信SSO
NORAD 69421·PAYLOAD·🇺🇸 United States

打ち上げ Jun 7, 2026 から Vandenberg Space Force Base

Loading…

次のパス (今後24時間)

TLE

最新Source: CelesTrak SupGP

元期: Sep 14, 2026, 21:15 UTC

1 69421C 26126B   26257.88590278  .00022216  00000+0  68964-3 0  2573
2 69421  97.2849 119.1538 0001921  90.4797 176.2382 15.33427367    11

AllMySatでSTARLINK-37585をリアルタイム追跡

Download on the App Store